Weather History for PASO - December, 2012

Change the Weather History Date:

Thursday, December 6, 2012

  Actual Average (PAHO) Record (PAHO)
Temperature  
Mean Temperature 14 °F -  
Max Temperature 19 °F 30 °F 48 °F (2002)
Min Temperature 9 °F 19 °F -12 °F (1975)
Degree Days  
Heating Degree Days 51    
Moisture  
Dew Point 8 °F    
Average Humidity 80    
Maximum Humidity 88    
Minimum Humidity 68    
Precipitation  
Precipitation 0.00 in - - ()
Sea Level Pressure  
Sea Level Pressure 29.73 in    
Wind  
Wind Speed 2 mph (North)    
Max Wind Speed 7 mph    
Max Gust Speed -    
Visibility 10 miles    
Events      
Averages and records for this station are not official NWS values.
T = Trace of Precipitation, MM = Missing Value Source: NWS Daily Summary

Daily Weather History Graph

Daily Weather History Graph

Search for Another Location

Airport or City:

Trip Planner

Search our weather history database for the weather conditions in past years. The results will help you decide how hot, cold, wet, or windy it might be!

Date:

Astronomy

Dec. 06, 2012 Rise Set
Actual Time 9:47 AM AKST 4:08 PM AKST
Civil Twilight 8:53 AM AKST 5:02 PM AKST
Nautical Twilight 7:58 AM AKST 5:57 PM AKST
Astronomical Twilight 7:08 AM AKST 6:47 PM AKST
Moon 12:33 AM AKST (12/6) 1:12 PM AKST (12/6)
Length of Visible Light 8h 09m
Length of Day
6h 20m
Waning Gibbous, 48% of the Moon is Illuminated
Dec 6
Waning Gibbous
Dec 12
New
Dec 19
First Quarter
Dec 28
Full
Jan 4
Last Quarter

Hourly Weather History & Observations

Time (AKST) Temp. Windchill Dew Point Humidity Pressure Visibility Wind Dir Wind Speed Gust Speed Precip Events Conditions
12:53 AM 17.1 °F 7.6 °F 8.1 °F 68% 29.57 in 10.0 mi North 6.9 mph - N/A   Mostly Cloudy
1:53 AM 15.1 °F - 9.0 °F 77% 29.59 in 10.0 mi Calm Calm - N/A   Clear
3:53 AM 12.9 °F - 8.1 °F 81% 29.61 in 10.0 mi Calm Calm - N/A   Clear
4:53 AM 10.9 °F - 7.0 °F 84% 29.62 in 10.0 mi Calm Calm - N/A   Clear
5:53 AM 10.9 °F - 6.1 °F 81% 29.62 in 10.0 mi Calm Calm - N/A   Partly Cloudy
6:53 AM 12.0 °F - 7.0 °F 80% 29.65 in 10.0 mi Calm Calm - N/A   Clear
7:24 AM 12.2 °F - 6.8 °F 79% 29.65 in 10.0 mi Calm Calm - N/A   Mostly Cloudy
7:53 AM 12.0 °F - 8.1 °F 84% 29.66 in 10.0 mi Calm Calm - N/A   Mostly Cloudy
8:10 AM 12.2 °F - 8.6 °F 85% 29.66 in 10.0 mi Calm Calm - N/A   Scattered Clouds
8:53 AM 12.0 °F 5.9 °F 8.1 °F 84% 29.68 in 10.0 mi North 3.5 mph - N/A   Clear
9:53 AM 14.0 °F 8.2 °F 9.0 °F 80% 29.71 in 10.0 mi North 3.5 mph - N/A   Partly Cloudy
10:53 AM 14.0 °F - 10.0 °F 84% 29.73 in 10.0 mi Calm Calm - N/A   Overcast
11:53 AM 17.1 °F - 10.0 °F 74% 29.75 in 10.0 mi Calm Calm - N/A   Clear
12:53 PM 18.0 °F - 9.0 °F 68% 29.76 in 10.0 mi Calm Calm - N/A   Clear
1:53 PM 19.0 °F 13.9 °F 10.0 °F 68% 29.77 in 10.0 mi North 3.5 mph - N/A   Clear
2:53 PM 17.1 °F - 9.0 °F 71% 29.78 in 10.0 mi Calm Calm - N/A   Clear
3:53 PM 14.0 °F - 8.1 °F 77% 29.79 in 10.0 mi Calm Calm - N/A   Clear
4:53 PM 12.0 °F - 7.0 °F 80% 29.80 in 10.0 mi Calm Calm - N/A   Clear
5:53 PM 10.0 °F - 6.1 °F 84% 29.81 in 10.0 mi Calm Calm - N/A   Clear
6:53 PM 9.0 °F - 6.1 °F 88% 29.82 in 10.0 mi Calm Calm - N/A   Clear
7:53 PM 9.0 °F - 6.1 °F 88% 29.83 in 10.0 mi Calm Calm - N/A   Clear
8:53 PM 10.0 °F - 6.1 °F 84% 29.85 in 10.0 mi Calm Calm - N/A   Clear
9:53 PM 9.0 °F - 5.0 °F 84% 29.86 in 10.0 mi Calm Calm - N/A   Clear
10:53 PM 9.0 °F - 5.0 °F 84% 29.86 in 7.0 mi Calm Calm - N/A   Clear
11:53 PM 10.0 °F - 6.1 °F 84% 29.87 in 10.0 mi Calm Calm - N/A   Partly Cloudy